Location: Wien
(48.2082°N, 16.3738°E)
Time: 11:53:36
(UTC+01:00)

Transit 4A - All Passes

Search period start: 22 February 2024 00:00
Search period end: 03 March 2024 00:00
Orbit: 869 x 974 km, 66.8° (Epoch: 21 February)

Date Brightness Start Highest point End Pass type
(mag) Time Alt. Az. Time Alt. Az. Time Alt. Az.
22 Feb - 00:57:30 10° SSE 01:02:32 26° ESE 01:07:28 10° NE visible
22 Feb - 02:42:16 10° SW 02:48:26 67° NW 02:54:28 10° NNE visible
22 Feb - 04:31:20 10° WNW 04:35:54 21° NNW 04:40:24 10° NNE visible
22 Feb - 06:22:10 10° NNW 06:24:42 13° N 06:27:13 10° NNE visible
22 Feb - 08:09:26 10° NNW 08:13:36 19° NNE 08:17:42 10° ENE daylight
22 Feb - 09:55:23 10° NNW 10:01:14 59° NE 10:06:57 10° SE daylight
22 Feb - 11:42:16 10° NW 11:47:12 29° WSW 11:52:04 10° SSW daylight
23 Feb - 01:05:46 10° S 01:11:24 37° ESE 01:16:55 10° NE visible
23 Feb - 02:51:38 10° WSW 02:57:38 50° NW 03:03:29 10° NNE visible
23 Feb - 04:41:24 10° WNW 04:45:25 18° NNW 04:49:23 10° NNE visible
23 Feb - 06:31:49 10° NNW 06:34:23 13° N 06:36:56 10° NNE daylight
23 Feb - 08:18:27 10° NNW 08:23:06 23° NNE 08:27:40 10° E daylight
23 Feb - 10:04:27 10° NNW 10:10:22 80° NE 10:16:11 10° SE daylight
23 Feb - 11:51:55 10° WNW 11:56:00 20° WSW 12:00:03 10° SSW daylight
24 Feb - 01:14:20 10° SSW 01:20:20 53° ESE 01:26:12 10° NE visible
24 Feb - 03:01:11 10° WSW 03:06:54 38° NW 03:12:30 10° NNE visible
24 Feb - 04:51:31 10° NW 04:55:01 15° NNW 04:58:27 10° NNE visible
24 Feb - 06:41:12 10° NNW 06:44:03 13° N 06:46:53 10° NE daylight
24 Feb - 08:27:27 10° NNW 08:32:31 28° NE 08:37:31 10° E daylight
24 Feb - 10:13:34 10° NW 10:19:26 75° WSW 10:25:13 10° SSE daylight
24 Feb - 12:02:10 10° WNW 12:04:44 13° WSW 12:07:17 10° SW daylight
24 Feb - 23:41:01 10° SE 23:43:59 14° ESE 23:46:55 10° ENE night (unlit)
25 Feb - 01:23:10 10° SSW 01:29:20 74° ESE 01:35:23 10° NE visible
25 Feb - 03:10:53 10° W 03:16:14 30° NW 03:21:28 10° NNE visible
25 Feb - 05:01:39 10° NW 05:04:39 14° NNW 05:07:37 10° NNE visible
25 Feb - 06:50:25 10° NNW 06:53:42 15° NNE 06:56:57 10° NE daylight
25 Feb - 08:36:26 10° NNW 08:41:52 36° NE 08:47:13 10° ESE daylight
25 Feb - 10:22:45 10° NW 10:28:26 53° WSW 10:34:02 10° SSE daylight
25 Feb - 23:48:21 10° SSE 23:52:44 21° ESE 23:57:04 10° ENE visible
26 Feb - 01:32:13 10° SW 01:38:25 82° NW 01:44:29 10° NE visible
26 Feb - 03:20:45 10° W 03:25:39 24° NNW 03:30:27 10° NNE visible
26 Feb - 05:11:40 10° NNW 05:14:19 13° N 05:16:54 10° NNE visible
26 Feb - 06:59:29 10° NNW 07:03:17 17° NNE 07:07:02 10° ENE daylight
26 Feb - 08:45:27 10° NNW 08:51:09 48° NE 08:56:45 10° ESE daylight
26 Feb - 10:32:02 10° NW 10:37:21 37° WSW 10:42:37 10° S daylight
26 Feb - 23:56:20 10° SSE 00:01:34 29° ESE 00:06:41 10° NE visible
27 Feb - 01:41:27 10° SW 01:47:33 61° NW 01:53:32 10° NNE visible
27 Feb - 03:30:45 10° WNW 03:35:08 20° NNW 03:39:27 10° NNE visible
27 Feb - 05:21:30 10° NNW 05:23:59 13° N 05:26:27 10° NNE visible
27 Feb - 07:08:32 10° NNW 07:12:50 20° NNE 07:17:04 10° ENE daylight
27 Feb - 08:54:28 10° NNW 09:00:21 64° NE 09:06:06 10° SE daylight
27 Feb - 10:41:30 10° NW 10:46:12 26° WSW 10:50:52 10° SSW daylight
28 Feb - 00:04:42 10° S 00:10:27 41° ESE 00:16:05 10° NE visible
28 Feb - 01:50:53 10° WSW 01:56:47 46° NW 02:02:33 10° NNE visible
28 Feb - 03:40:50 10° WNW 03:44:40 17° NNW 03:48:28 10° NNE visible
28 Feb - 05:31:03 10° NNW 05:33:40 13° N 05:36:15 10° NNE visible
28 Feb - 07:17:32 10° NNW 07:22:18 24° NNE 07:27:00 10° E daylight
28 Feb - 09:03:33 10° NW 09:09:28 88° NE 09:15:17 10° SE daylight
28 Feb - 10:51:17 10° WNW 10:54:59 18° WSW 10:58:40 10° SW daylight
29 Feb - 00:13:21 10° SSW 00:19:24 59° ESE 00:25:20 10° NE visible
29 Feb - 02:00:29 10° WSW 02:06:04 35° NW 02:11:32 10° NNE visible
29 Feb - 03:50:58 10° NW 03:54:16 15° NNW 03:57:32 10° NNE visible
29 Feb - 05:40:23 10° NNW 05:43:19 14° NNE 05:46:15 10° NE visible
29 Feb - 07:26:31 10° NNW 07:31:42 30° NE 07:36:48 10° E daylight
29 Feb - 09:12:41 10° NW 09:18:31 67° WSW 09:24:15 10° SSE daylight
29 Feb - 11:01:59 10° W 11:03:42 11° W 11:05:25 10° WSW daylight
29 Feb - 22:39:29 10° SE 22:42:58 16° ESE 22:46:25 10° ENE night (unlit)
01 Mar - 00:22:14 10° SSW 00:28:26 81° ESE 00:34:29 10° NE visible
01 Mar - 02:10:14 10° W 02:15:25 28° NW 02:20:31 10° NNE visible
01 Mar - 04:01:05 10° NW 04:03:55 13° N 04:06:43 10° NNE visible
01 Mar - 05:49:32 10° NNW 05:52:57 15° NNE 05:56:20 10° NE visible
01 Mar - 07:35:31 10° NNW 07:41:02 39° NE 07:46:27 10° ESE daylight
01 Mar - 09:21:53 10° NW 09:27:28 47° WSW 09:32:59 10° S daylight
01 Mar - 22:47:04 10° SSE 22:51:44 23° ESE 22:56:21 10° ENE night (unlit)
02 Mar - 00:31:21 10° SW 00:37:32 75° NW 00:43:34 10° NNE visible
02 Mar - 02:20:09 10° W 02:24:52 23° NNW 02:29:31 10° NNE visible
02 Mar - 04:11:03 10° NNW 04:13:35 13° N 04:16:06 10° NNE visible
02 Mar - 05:58:35 10° NNW 06:02:32 18° NNE 06:06:24 10° ENE visible
02 Mar - 07:44:31 10° NNW 07:50:17 52° NE 07:55:56 10° SE daylight
02 Mar - 09:31:14 10° NW 09:36:23 33° WSW 09:41:28 10° S daylight
02 Mar - 22:55:11 10° S 23:00:35 33° ESE 23:05:53 10° NE night (unlit)
